User: anonymous   Login
Location: Veyrier
(46.1830°N, 6.2000°E)
Time: 19:28:11
(UTC+02:00)
Language:

Iridium 98 - Orbit

View from above orbital plane
View from above orbital plane
View from above satellite
View from above satellite

Ground track
Ground track

The orbit data is extracted from the following two-line orbital elements,

1 27451U 02031B   15211.36369528  .00000243  00000-0  79670-4 0  9999
2 27451 086.3981 309.7336 0002091 092.9701 331.2049 14.34220239692714
Epoch (UTC): 30 July 2015 08:43:43
Eccentricity: 0.0002091
inclination: 86.3981°
perigee height: 776 km
apogee height: 779 km
right ascension of ascending node: 309.7336°
argument of perigee: 92.9701°
revolutions per day: 14.34220239
mean anomaly at epoch: 331.2049°
orbit number at epoch: 69271

The dashed part of the orbit path shows where the satellite is in the earth's shadow,  

DLR